www.pogodaiklimat.ru

Погода и климат >> Архив погоды >> Россия >> Красноярский край >> Верхнеимбатск


АРХИВ ПОГОДЫ в Верхнеимбатске

Время (UTC), дата Ветер
(напр.,м/с)
 
Видим.   Явления Облачность Т
(С)
Тd
(С)
f
(%)
Тe
(С)
Тes
(С)
Комфортность P
(гПа)
Po
(гПа)
Тmin
(С)
Tmax
(С)
R
(мм)
R24
(мм)
S
(см)
18 16.01 ЮВ 2 н/о слаб. снег 10/0
[As trans]
-13.8 -15.8 85 -19 -19 1014.0 1007.9
21 16.01 ЮВ 2 н/о слаб. снег 10/0
[As op]
-13.6 -15.6 85 -18 -18 1015.0 1008.9
00 17.01 В 2 н/о слаб. снег 10/5 600 м
[Sc As op]
-13.2 -15.2 85 -18 -18 1015.5 1009.4 -15.6 2 75
03 17.01 Ю 1 н/о {снег} 6/0
[Ac As]
-15.6 -17.5 85 -18 -18 1018.2 1012.1
06 17.01 Ю 1 н/о н/о -15.9 -17.8 85 -19 -19 1017.5 1012.0 -16.2
09 17.01 Ю 1 10 км слаб. снег 8/0
[Ac As]
-14.2 -16.2 85 -17 -17 1022.3 1016.2
12 17.01 ЮВ 2 н/о {снег} 3/0
[As trans]
-15.1 -17.1 85 -20 -20 1024.3 1018.2 -13.2 0.3
15 17.01 ЮВ 2 н/о 10/0
[As trans]
-15.8 -17.7 85 -21 -21 1024.9 1018.8
18 17.01 В 3 н/о 10/0
[As trans]
-14.8 -16.8 85 -21 -21 1025.2 1019.1
21 17.01 В 3 н/о 10/0
[As op]
-15.0 -17.0 85 -22 -22 1024.4 1018.3
00 18.01 В 5
{10}
н/о позёмок 10/0
[As op]
-13.4 -15.4 85 -22 -22 1023.1 1017.0 -16.0 76
03 18.01 ЮВ 4
{11}
н/о позёмок 10/0
[As trans]
-12.8 -14.8 85 -20 -20 1020.9 1014.8
06 18.01 В 5-10
{10}
20 км позёмок 10/0
[As trans]
-11.0 -13.8 80 -19 -19 1018.4 1012.4
09 18.01 ЮВ 6
{14}
20 км сильный позёмок 10/0
[Ac As]
-9.5 -12.1 81 -18 -18 1015.9 1009.9
12 18.01 ЮВ 5
{12}
н/о слаб. снег {метель} 10/0
[Ac As]
-8.4 -10.7 83 -16 -16 1014.5 1008.5 -8.4 0.0
15 18.01 ЮВ 4
{10}
н/о слаб. ливневой снег 10/10 600 м
[Cb cap]
-7.5 -9.2 88 -14 -14 1013.5 1007.6
18 18.01 ЮВ 2 н/о {ливн. осадки, снег} 8/8 600 м
[Sc]
-8.8 -11.2 83 -13 -13 1013.6 1007.6
21 18.01 ЮВ 4 н/о 3/3 600 м
[Sc]
-10.2 -13.0 80 -17 -17 1013.5 1007.5
00 19.01 ЮВ 4 н/о ясно -10.8 -13.6 80 -18 -18 1012.1 1006.1 -10.8 2 74
03 19.01 Ю 4 20 км позёмок 10/0
[Ci sp]
-11.6 -14.4 80 -19 -19 1009.2 1003.3 -11.6
06 19.01 ЮВ 5
{10}
20 км позёмок 10/0
[As op]
-10.8 -13.6 80 -19 -19 1006.2 1000.3
09 19.01 ЮВ 4 4000 м слаб. ливневой снег 10/10 600 м
[Cb cap]
-10.0 -12.0 85 -17 -17 1004.0 998.1
12 19.01 ЮВ 1 н/о {ливн. осадки, снег} 10/4 600 м
[Cb cap As op]
-8.5 -10.9 83 -11 -11 1004.2 998.3 -8.5 0.4
15 19.01 Ю 1 н/о слаб. ливневой снег 10/10 600 м
[Cb cap]
-9.0 -11.5 82 -11 -11 1004.9 999.0
18 19.01 ЮЗ 2 н/о {ливн. осадки} ясно -9.8 -12.4 81 -14 -14 1006.3 1000.4
21 19.01 ЮЗ 2 н/о 10/0
[As trans]
-9.3 -11.8 82 -14 -14 1008.5 1002.6
00 20.01 ЮВ 2 н/о 10/10 600 м
[Cb cap]
-8.8 -10.8 85 -13 -13 1008.6 1002.7 -11.0 0.2 74
03 20.01 ЮВ 2 4000 м слаб. ливневой снег 10/10 600 м
[Cb cap]
-8.0 -9.4 90 -13 -13 1007.3 1001.4
06 20.01 ЮВ 3 4000 м слаб. снег 10/5 600 м
[Sc As op]
-7.6 -9.0 90 -13 -13 1005.7 999.9
09 20.01 З 3 10 км слаб. снег {метель} 10/3 600 м
[Sc Ac As]
-7.4 -9.1 88 -13 -13 1004.9 999.1
12 20.01 З 3 н/о позёмок {снег} 8/0
[Ac As]
-11.4 -12.7 90 -17 -17 1008.7 1002.8 -7.0 5
15 20.01 З 3 н/о {метель} 1/0
[Ci fib]
-14.8 -16.1 90 -21 -21 1013.0 1006.9
18 20.01 З 1 н/о {метель} ясно -16.6 -18.5 85 -19 -19 1015.3 1009.2
21 20.01 штиль 0 н/о ясно -21.0 -22.9 85 -21 -21 1018.3 1012.1
00 21.01 штиль 0 н/о 3/0
[Ci fib]
-24.7 -27.2 80 -25 -25 1021.5 1015.1 -24.9 80
03 21.01 штиль 0 20 км 3/0
[Ci fib]
-26.7 -29.2 79 -27 -27 1022.6 1016.2 -27.6
06 21.01 штиль 0 20 км 8/0
[Ci fib]
-24.4 -26.9 80 -24 -24 1023.7 1017.3
09 21.01 В 1 20 км 10/0
[As trans Ci fib]
-20.7 -23.2 80 -24 -24 1023.1 1016.8
12 21.01 В 2 н/о 10/0
[As trans]
-19.3 -21.2 85 -25 -25 1021.5 1015.2 -19.3
15 21.01 В 2 н/о 10/0
[As trans]
-17.0 -18.9 85 -22 -22 1019.8 1013.7
18 21.01 В 5
{11}
н/о позёмок 10/0
[As trans]
-14.6 -18.1 75 -23 -23 1017.1 1011.0
21 21.01 В 5-11
{12}
н/о слаб. снег {метель} 10/0
[As op]
-13.0 -15.7 80 -21 -21 1014.1 1008.0
00 22.01 В 4
{11}
н/о слаб. снег {метель} 10/0
[Ac As]
-11.2 -13.2 85 -18 -18 1010.8 1004.9 -19.3 3 79
03 22.01 В 3 4000 м слаб. снег {метель} 10/0
[Ac As]
-11.0 -13.0 85 -17 -17 1011.0 1005.0
06 22.01 ЮВ 2 4000 м слаб. снег {метель} 10/0
[Ac As]
-10.5 -12.5 85 -15 -15 1011.9 1005.9
09 22.01 ЮЗ 2 20 км {снег, метель} 10/0
[As trans]
-10.9 -12.9 85 -15 -15 1015.6 1009.6
12 22.01 ЮВ 2 н/о {снег, метель} 10/0
[As trans]
-11.8 -13.8 85 -16 -16 1017.3 1011.3 -10.5 5
15 22.01 В 2 н/о 10/0
[As trans]
-11.9 -13.9 85 -16 -16 1018.1 1012.1
18 22.01 ЮВ 4 н/о слаб. снег {метель} 10/0 600 м
[As op]
-11.0 -13.0 85 -18 -18 1018.4 1012.4
21 22.01 ЮВ 3 н/о {снег, метель} 10/0
[As op]
-11.3 -13.3 85 -17 -17 1019.2 1013.2
00 23.01 ЮВ 3 н/о слаб. снег 10/0
[As op]
-11.1 -13.1 85 -17 -17 1019.7 1013.7 -12.5 0.4 80
03 23.01 В 4 10 км слаб. снег 10/0
[As op]
-11.4 -13.4 85 -18 -18 1019.1 1013.1
06 23.01 ЮВ 4 4000 м снег {метель} 10/0 600 м
[As op]
-9.8 -11.9 85 -17 -17 1017.2 1011.2
09 23.01 ЮВ 4 4000 м снег {метель} 10/0 600 м
[As op]
-9.2 -11.7 82 -16 -16 1017.5 1011.5
12 23.01 ЮВ 2 н/о позёмок {снег} 10/8 600 м
[Cu Sc As trans]
-10.2 -13.0 80 -15 -15 1019.2 1013.2 -9.0 2

 

Местоположение метеостанции Верхнеимбатск (Красноярский край, Россия): широта 63.15 долгота 87.95 высота над уровнем моря 45 м.

В архиве по умолчанию представлена погода в Верхнеимбатске за последнюю неделю. Архивные данные за месяц целиком и за предыдущие месяцы, начиная с января 2011 года, Вы можете получить, выбрав интересующий диапазон дат из раскрывающегося списка и нажав кнопку "Ввод!".


*Определитесь, кто Вы:
робот инопланетянин человек

Внимание! Время в таблицах - всемирное. Для получения местного времени необходимо прибавить поправку, которая равна 7 ч.

Смотрите также архив погоды в соседних городах и на ближайших метеорологических станциях:

Погода в Бахте (Красноярский край, Россия) (93 км)
Погода в Келлоге (Красноярский край, Россия) (113 км)
Погода в Верещагино (Красноярский край, Россия) (122 км)
Погода в Бору (Красноярский край, Россия) (203 км)
Погода в Кузьмовке (Эвенкия, Россия) (232 км)
Погода в Ворогово (Красноярский край, Россия) (251 км)
Погода в Туруханске (Красноярский край, Россия) (293 км)
Погода в Большом Пороге (Эвенкия, Россия) (294 км)
Погода в Тольке (Ямало-Ненецкий АО, Россия) (305 км)
Погода в Тутончанах (Эвенкия, Россия) (310 км)

Пояснения к столбцам:

Ветер - указаны скорость ветра в м/с - средняя за 10 мин, порывы в срок и между сроками (в фигурных скобках) и направление, откуда дует ветер: С - северный, СВ - северо-восточный, В - восточный, ЮВ - юго-восточный, Ю - южный, ЮЗ - юго-западный, З - западный, СЗ - северо-западный.
Видимость - горизонтальная дальность видимости в метрах или километрах. При видимости от 1 до 10 км при отсутствии осадков обычно наблюдается дымка, при ухудшении видимости до 1 км и менее - туман. В сухую погоду видимость может ухудшаться дымом, пылью или мглою.
Явления - указаны атмосферные явления, наблюдавшиеся в срок или в последний час перед сроком; фигурными скобками обозначены явления, наблюдавшиеся между сроками (за 1-3 часа до срока); квадратными скобками обозначены град или гололедные отложения с указанием их диаметра в мм.
Облачность - указаны через наклонную черту общая и нижняя облачность в баллах и высота нижней границы облаков в метрах; квадратными скобками обозначены формы облаков: Ci - перистые, Cs - перисто-слоистые, Cc - перисто-кучевые, Ac - высококучевые, As - высокослоистые, Sc - слоисто-кучевые, Ns - слоисто-дождевые, Cu - кучевые, Cb - кучево-дождевые. Подробнее классификацию облаков см. в Атласе облаков (PDF).
T - Температура воздуха - температура, измеренная на высоте 2 м над землей.
Td - Температура точки росы - температура, при понижении до которой содержащийся в воздухе водяной пар достигнет насыщения.
f - Относительная влажность воздуха - влажноcть воздуха, измеренная на высоте 2 м над землей.
Te - Эффективная температура - температура, которую ощущает одетый по сезону человек в тени. Характеристика душности погоды. При расчете учитывается влияние влажности воздуха и скорости ветра на теплоощущения человека.
Tes - Эффективная температура на солнце - температура, которую ощущает человек, с поправкой на солнечный нагрев. Характеристика знойности погоды. Зависит от высоты солнца над горизонтом, облачности и скорости ветра. Ночью, в пасмурную погоду, а также при ветре 12 м/с и более поправка равна нулю.
P - Атмосферное давление - приведенное к уровню моря атмосферное давление.
Po - Атмосферное давление - измеренное на уровне метеостанции атмосферное давление.
Tmin - Минимальная температура - минимум температуры воздуха на высоте 2 м над землей.
Tmax - Максимальная температура - максимум температуры воздуха на высоте 2 м над землей.
R - Количество осадков - Количество выпавших осадков за период времени, мм. При наведении курсора мыши на число - период времени, за который выпало указанное количество осадков.
R24 - Количество осадков - Количество выпавших осадков за 24 часа, мм.
S - Снежный покров - Высота снежного покрова, см. При наведении курсора мыши на число - состояние снежного покрова и степень покрытия местности в баллах.